Precipitable_Water
0.64 0.62 0.62 0.62 0.65 0.65 0.67 0.69 0.65 0.60 0.64 0.64 0.69 0.65 0.65 0.71 0.72 0.69 0.62 0.67 0.58 0.47 0.47 0.52 0.49 0.38 0.34 0.33 0.31 0.40 0.42 0.46 0.41 0.31 0.27 0.26 0.28 0.23 0.25 0.37 0.45 0.41 0.39 0.39 0.41 0.36 0.30 0.47 0.43 0.33 0.36 0.44 0.48 0.47
0.63 0.64 0.63 0.64 0.66 0.63 0.67 0.65 0.66 0.59 0.63 0.67 0.66 0.65 0.65 0.71 0.72 0.72 0.60 0.69 0.67 0.54 0.54 0.63 0.63 0.58 0.51 0.38 0.38 0.42 0.49 0.41 0.40 0.34 0.29 0.32 0.34 0.35 0.31 0.28 0.51 0.47 0.50 0.44 0.44 0.42 0.51 0.52 0.46 0.48 0.52 0.54 0.55 0.50
0.64 0.64 0.66 0.62 0.66 0.63 0.62 0.63 0.62 0.62 0.66 0.69 0.65 0.65 0.68 0.72 0.71 0.71 0.63 0.65 0.58 0.50 0.55 0.52 0.44 0.58 0.66 0.60 0.66 0.39 0.49 0.47 0.43 0.44 0.38 0.37 0.31 0.34 0.26 0.26 0.28 0.45 0.57 0.50 0.51 0.51 0.53 0.56 0.54 0.54 0.57 0.57 0.58 0.57
0.65 0.67 0.66 0.62 0.61 0.67 0.70 0.69 0.69 0.70 0.69 0.68 0.68 0.67 0.69 0.70 0.71 0.69 0.61 0.66 0.59 0.56 0.43 0.46 0.59 0.47 0.61 0.64 0.67 0.60 0.52 0.58 0.54 0.51 0.42 0.35 0.25 0.29 0.33 0.31 0.26 0.28 0.36 0.38 0.37 0.43 0.47 0.54 0.56 0.59 0.59 0.63 0.61 0.61
0.65 0.66 0.68 0.69 0.68 0.66 0.67 0.67 0.67 0.68 0.70 0.73 0.73 0.73 0.70 0.71 0.69 0.69 0.67 0.66 0.64 0.48 0.38 0.42 0.53 0.52 0.56 0.56 0.62 0.63 0.54 0.55 0.49 0.43 0.37 0.29 0.26 0.21 0.33 0.32 0.28 0.33 0.32 0.35 0.32 0.39 0.39 0.43 0.56 0.66 0.65 0.65 0.64 0.60
0.64 0.66 0.66 0.67 0.68 0.69 0.70 0.71 0.71 0.71 0.71 0.70 0.70 0.69 0.70 0.69 0.70 0.63 0.50 0.67 0.67 0.62 0.40 0.30 0.47 0.53 0.53 0.54 0.57 0.57 0.57 0.53 0.51 0.42 0.36 0.29 0.28 0.33 0.30 0.28 0.33 0.32 0.32 0.39 0.39 0.50 0.51 0.59 0.63 0.63 0.64 0.68 0.69 0.65
0.61 0.64 0.65 0.66 0.66 0.67 0.68 0.69 0.69 0.69 0.69 0.69 0.68 0.69 0.69 0.69 0.67 0.53 0.47 0.56 0.62 0.56 0.39 0.30 0.32 0.45 0.52 0.53 0.56 0.53 0.55 0.50 0.53 0.52 0.48 0.42 0.38 0.39 0.35 0.25 0.24 0.31 0.39 0.41 0.47 0.49 0.46 0.49 0.50 0.58 0.63 0.64 0.65 0.66
0.57 0.59 0.63 0.64 0.66 0.67 0.66 0.67 0.67 0.68 0.67 0.68 0.67 0.66 0.67 0.66 0.64 0.53 0.58 0.58 0.55 0.45 0.38 0.28 0.29 0.39 0.53 0.42 0.47 0.57 0.46 0.48 0.48 0.46 0.46 0.42 0.46 0.47 0.35 0.31 0.28 0.34 0.37 0.42 0.49 0.55 0.53 0.52 0.52 0.53 0.56 0.58 0.58 0.60
0.51 0.53 0.57 0.62 0.63 0.65 0.66 0.65 0.66 0.67 0.66 0.65 0.63 0.62 0.59 0.55 0.49 0.50 0.59 0.60 0.61 0.45 0.29 0.27 0.23 0.27 0.53 0.46 0.52 0.53 0.56 0.40 0.48 0.35 0.37 0.43 0.37 0.34 0.38 0.30 0.32 0.38 0.41 0.42 0.46 0.48 0.52 0.51 0.53 0.55 0.57 0.57 0.54 0.55
0.45 0.45 0.46 0.53 0.61 0.64 0.65 0.64 0.63 0.64 0.63 0.60 0.56 0.48 0.41 0.51 0.57 0.56 0.48 0.38 0.35 0.34 0.36 0.27 0.37 0.33 0.45 0.44 0.48 0.50 0.58 0.47 0.36 0.41 0.49 0.41 0.34 0.43 0.48 0.48 0.48 0.50 0.51 0.54 0.46 0.46 0.49 0.50 0.53 0.54 0.55 0.58 0.56 0.55
0.48 0.49 0.50 0.49 0.48 0.53 0.59 0.60 0.57 0.54 0.57 0.51 0.42 0.41 0.50 0.54 0.45 0.40 0.28 0.25 0.28 0.25 0.30 0.32 0.36 0.35 0.49 0.39 0.40 0.53 0.43 0.44 0.35 0.41 0.36 0.33 0.29 0.42 0.50 0.51 0.53 0.55 0.58 0.60 0.60 0.54 0.54 0.54 0.55 0.54 0.55 0.58 0.57 0.56
0.57 0.51 0.52 0.53 0.51 0.51 0.51 0.53 0.54 0.53 0.49 0.49 0.47 0.47 0.43 0.36 0.32 0.29 0.25 0.29 0.29 0.23 0.32 0.33 0.38 0.40 0.45 0.52 0.45 0.44 0.42 0.43 0.34 0.49 0.41 0.35 0.44 0.54 0.61 0.60 0.61 0.65 0.66 0.64 0.63 0.60 0.58 0.57 0.59 0.60 0.59 0.58 0.58 0.59
0.54 0.49 0.52 0.53 0.51 0.50 0.49 0.52 0.53 0.56 0.57 0.53 0.45 0.35 0.37 0.37 0.27 0.25 0.21 0.25 0.26 0.34 0.38 0.37 0.37 0.43 0.48 0.53 0.49 0.48 0.40 0.36 0.49 0.40 0.36 0.38 0.49 0.55 0.58 0.60 0.61 0.64 0.66 0.66 0.65 0.65 0.63 0.64 0.66 0.66 0.63 0.63 0.62 0.60
0.52 0.48 0.50 0.50 0.51 0.53 0.55 0.57 0.59 0.59 0.54 0.41 0.36 0.28 0.31 0.26 0.28 0.29 0.29 0.31 0.37 0.37 0.38 0.42 0.39 0.42 0.50 0.45 0.44 0.35 0.41 0.45 0.35 0.31 0.30 0.41 0.48 0.53 0.57 0.59 0.59 0.59 0.61 0.62 0.62 0.64 0.64 0.62 0.61 0.61 0.60 0.59 0.58 0.56
0.56 0.55 0.53 0.51 0.51 0.52 0.55 0.55 0.55 0.52 0.43 0.34 0.34 0.24 0.26 0.32 0.34 0.36 0.39 0.39 0.39 0.45 0.43 0.40 0.43 0.46 0.44 0.42 0.43 0.43 0.38 0.33 0.33 0.30 0.37 0.44 0.49 0.52 0.53 0.55 0.55 0.55 0.56 0.56 0.58 0.58 0.58 0.57 0.57 0.55 0.55 0.55 0.55 0.53
0.54 0.55 0.56 0.58 0.55 0.55 0.55 0.52 0.51 0.49 0.40 0.34 0.29 0.28 0.31 0.31 0.31 0.34 0.35 0.34 0.42 0.45 0.51 0.51 0.43 0.40 0.37 0.39 0.34 0.31 0.30 0.27 0.31 0.37 0.43 0.47 0.48 0.50 0.50 0.52 0.52 0.53 0.53 0.53 0.54 0.54 0.53 0.52 0.51 0.50 0.50 0.49 0.49 0.48
0.55 0.49 0.56 0.55 0.56 0.56 0.54 0.49 0.46 0.39 0.35 0.34 0.30 0.33 0.31 0.29 0.28 0.30 0.34 0.37 0.45 0.41 0.33 0.35 0.31 0.31 0.38 0.30 0.28 0.32 0.29 0.32 0.38 0.41 0.44 0.46 0.46 0.47 0.48 0.49 0.49 0.49 0.49 0.49 0.50 0.49 0.49 0.49 0.48 0.46 0.44 0.44 0.45 0.44
0.58 0.63 0.62 0.61 0.61 0.58 0.54 0.52 0.44 0.38 0.32 0.34 0.32 0.34 0.35 0.34 0.31 0.32 0.34 0.39 0.40 0.39 0.38 0.32 0.35 0.28 0.25 0.25 0.27 0.31 0.35 0.40 0.42 0.42 0.43 0.45 0.46 0.47 0.48 0.46 0.47 0.47 0.46 0.46 0.46 0.46 0.45 0.44 0.42 0.41 0.41 0.41 0.41 0.40
0.68 0.68 0.68 0.67 0.66 0.57 0.48 0.47 0.45 0.33 0.34 0.36 0.36 0.37 0.38 0.38 0.41 0.41 0.41 0.43 0.44 0.45 0.40 0.37 0.32 0.30 0.30 0.31 0.33 0.35 0.38 0.39 0.38 0.39 0.41 0.43 0.44 0.43 0.44 0.44 0.44 0.43 0.43 0.42 0.42 0.41 0.41 0.41 0.40 0.40 0.39 0.38 0.36 0.36
0.71 0.70 0.69 0.68 0.63 0.51 0.43 0.43 0.46 0.37 0.33 0.36 0.38 0.36 0.37 0.37 0.40 0.41 0.42 0.43 0.43 0.41 0.35 0.31 0.30 0.31 0.32 0.34 0.37 0.37 0.40 0.41 0.39 0.36 0.36 0.38 0.40 0.40 0.40 0.40 0.40 0.40 0.40 0.39 0.39 0.39 0.37 0.37 0.37 0.36 0.36 0.35 0.33 0.32
0.67 0.66 0.65 0.60 0.54 0.49 0.44 0.42 0.38 0.37 0.36 0.33 0.34 0.30 0.29 0.31 0.30 0.30 0.30 0.33 0.33 0.32 0.29 0.32 0.32 0.34 0.36 0.37 0.38 0.38 0.37 0.38 0.36 0.36 0.34 0.34 0.37 0.37 0.37 0.37 0.37 0.37 0.36 0.35 0.34 0.33 0.33 0.32 0.33 0.33 0.32 0.31 0.30 0.29
0.53 0.47 0.41 0.40 0.33 0.32 0.31 0.35 0.30 0.32 0.27 0.24 0.23 0.22 0.20 0.19 0.19 0.20 0.22 0.19 0.18 0.21 0.24 0.26 0.28 0.30 0.31 0.32 0.34 0.36 0.36 0.36 0.36 0.35 0.35 0.34 0.32 0.33 0.33 0.33 0.33 0.32 0.32 0.31 0.31 0.29 0.29 0.29 0.28 0.26 0.25 0.23 0.21 0.17
0.35 0.33 0.29 0.28 0.22 0.23 0.22 0.31 0.23 0.24 0.19 0.20 0.20 0.16 0.15 0.15 0.16 0.18 0.14 0.15 0.16 0.20 0.22 0.22 0.23 0.25 0.25 0.27 0.28 0.30 0.31 0.31 0.31 0.31 0.31 0.31 0.30 0.30 0.30 0.30 0.29 0.28 0.26 0.26 0.25 0.23 0.21 0.19 0.18 0.16 0.15 0.14 0.13 0.12
0.21 0.17 0.18 0.19 0.21 0.18 0.23 0.20 0.22 0.20 0.20 0.17 0.15 0.13 0.14 0.15 0.17 0.14 0.12 0.14 0.17 0.19 0.20 0.21 0.23 0.22 0.23 0.23 0.22 0.23 0.25 0.27 0.26 0.27 0.28 0.27 0.26 0.26 0.26 0.25 0.24 0.22 0.20 0.19 0.17 0.15 0.14 0.13 0.13 0.12 0.11 0.10 0.10 0.09
0.12 0.13 0.15 0.13 0.19 0.16 0.15 0.15 0.16 0.16 0.13 0.14 0.13 0.12 0.13 0.16 0.12 0.11 0.11 0.14 0.16 0.18 0.20 0.21 0.21 0.22 0.20 0.21 0.22 0.22 0.23 0.23 0.22 0.22 0.23 0.23 0.21 0.19 0.17 0.16 0.14 0.13 0.14 0.13 0.12 0.12 0.11 0.11 0.10 0.09 0.08 0.07 0.07 0.07
0.10 0.14 0.13 0.13 0.13 0.13 0.14 0.12 0.12 0.12 0.12 0.12 0.12 0.14 0.15 0.12 0.10 0.09 0.12 0.15 0.16 0.17 0.18 0.19 0.19 0.19 0.19 0.20 0.20 0.20 0.20 0.21 0.19 0.17 0.16 0.15 0.14 0.12 0.11 0.10 0.10 0.10 0.11 0.11 0.10 0.09 0.08 0.08 0.07 0.07 0.07 0.07 0.06 0.06
0.10 0.12 0.15 0.17 0.16 0.15 0.14 0.15 0.15 0.13 0.11 0.11 0.12 0.12 0.12 0.09 0.09 0.11 0.15 0.16 0.16 0.18 0.19 0.20 0.19 0.18 0.17 0.17 0.17 0.17 0.16 0.15 0.12 0.10 0.10 0.10 0.10 0.10 0.09 0.08 0.07 0.08 0.09 0.09 0.08 0.08 0.07 0.06 0.06 0.06 0.06 0.06 0.07 0.07
0.14 0.15 0.10 0.13 0.12 0.13 0.10 0.10 0.10 0.10 0.11 0.12 0.12 0.09 0.08 0.09 0.09 0.13 0.14 0.17 0.18 0.19 0.19 0.19 0.19 0.19 0.18 0.18 0.17 0.15 0.12 0.11 0.10 0.10 0.10 0.09 0.09 0.09 0.09 0.09 0.08 0.08 0.08 0.08 0.07 0.07 0.07 0.06 0.06 0.06 0.06 0.06 0.06 0.07
0.12 0.13 0.10 0.07 0.08 0.08 0.08 0.08 0.09 0.09 0.10 0.10 0.08 0.07 0.08 0.10 0.12 0.13 0.15 0.17 0.19 0.18 0.17 0.16 0.17 0.17 0.16 0.14 0.12 0.10 0.09 0.09 0.07 0.06 0.07 0.07 0.08 0.08 0.08 0.08 0.08 0.08 0.08 0.08 0.07 0.07 0.06 0.06 0.06 0.06 0.06 0.07 0.07 0.07
0.10 0.13 0.08 0.08 0.07 0.08 0.09 0.11 0.09 0.11 0.11 0.11 0.10 0.09 0.10 0.11 0.13 0.17 0.17 0.17 0.16 0.16 0.16 0.15 0.15 0.14 0.12 0.11 0.08 0.07 0.08 0.08 0.09 0.09 0.08 0.07 0.07 0.08 0.08 0.08 0.08 0.07 0.07 0.07 0.07 0.07 0.07 0.07 0.07 0.07 0.07 0.07 0.07 0.06
0.13 0.12 0.10 0.10 0.09 0.10 0.11 0.12 0.12 0.12 0.11 0.11 0.11 0.10 0.10 0.11 0.13 0.15 0.15 0.16 0.15 0.15 0.14 0.13 0.13 0.13 0.10 0.08 0.08 0.08 0.07 0.08 0.08 0.08 0.09 0.08 0.08 0.08 0.07 0.07 0.07 0.07 0.07 0.07 0.07 0.07 0.06 0.07 0.07 0.06 0.06 0.06 0.06 0.06
0.12 0.11 0.09 0.08 0.09 0.12 0.13 0.12 0.11 0.10 0.10 0.10 0.09 0.10 0.11 0.11 0.10 0.12 0.15 0.15 0.14 0.14 0.14 0.13 0.11 0.09 0.09 0.08 0.08 0.08 0.08 0.09 0.09 0.08 0.08 0.08 0.08 0.08 0.08 0.08 0.08 0.08 0.07 0.07 0.07 0.07 0.06 0.06 0.06 0.06 0.06 0.06 0.06 0.06
0.12 0.11 0.10 0.10 0.09 0.10 0.11 0.11 0.10 0.09 0.10 0.09 0.09 0.10 0.11 0.11 0.09 0.12 0.14 0.15 0.14 0.13 0.12 0.11 0.09 0.08 0.08 0.08 0.09 0.09 0.09 0.09 0.08 0.08 0.07 0.07 0.07 0.07 0.07 0.08 0.08 0.08 0.07 0.07 0.07 0.07 0.07 0.06 0.06 0.06 0.06 0.06 0.06 0.06
Wind_Speed
25 17 17 18 23 20 5 30 40 45 45 46 50 49 52 55 57 50 44 47 37 30 31 23 26 25 29 43 42 39 37 37 31 30 29 26 24 28 28 27 23 24 25 23 24 23 24 17 15 21 18 20 17 17
22 18 16 13 18 18 21 30 36 43 43 46 49 47 51 54 55 47 41 43 39 27 22 24 20 22 22 40 40 39 37 34 31 30 29 27 24 22 25 27 24 20 23 25 24 22 22 21 22 23 20 18 18 20
21 20 16 12 18 23 29 33 38 39 41 45 45 47 49 53 51 44 39 37 36 29 21 23 24 19 21 29 34 41 39 32 34 33 27 26 24 24 24 26 29 29 23 22 22 25 23 21 21 22 20 20 20 20
22 24 24 17 18 23 27 31 35 37 39 41 43 45 52 48 42 43 39 34 32 27 22 18 18 22 22 24 33 40 36 31 32 32 29 26 26 25 24 26 26 27 25 28 32 31 30 27 25 25 25 24 23 22
22 24 25 27 26 29 29 31 33 36 36 40 41 46 50 44 37 36 34 31 32 24 21 17 15 16 22 25 30 36 38 36 33 30 30 30 29 26 25 26 28 28 27 26 25 24 25 27 26 25 28 26 24 23
21 24 26 28 30 33 34 34 36 38 41 42 42 44 43 39 35 33 25 28 31 27 14 17 16 15 18 23 27 37 39 34 31 31 30 30 30 28 24 26 26 27 30 29 28 27 27 24 24 25 26 26 25 25
20 22 24 26 28 29 30 32 34 36 38 38 39 37 37 35 30 26 24 27 26 24 17 11 13 17 19 20 25 31 40 37 30 27 25 26 27 26 26 27 22 21 23 26 25 25 25 26 25 23 24 25 24 26
19 21 23 24 26 28 29 30 32 33 37 37 38 35 33 30 25 21 21 24 23 18 14 13 13 13 20 18 20 27 34 38 33 30 26 27 25 24 25 26 26 27 27 26 24 23 25 25 25 24 25 25 26 26
17 20 22 23 25 28 30 32 33 35 35 34 31 28 23 21 19 18 21 19 18 15 14 14 15 14 16 21 19 23 26 30 29 32 30 25 27 26 24 24 24 23 23 24 25 26 24 25 25 24 25 26 27 26
18 17 19 22 25 28 29 30 32 32 32 30 26 19 18 18 23 20 15 14 15 13 12 13 14 18 18 18 19 18 16 22 25 27 26 26 28 27 23 21 21 20 20 20 21 23 23 23 23 23 25 25 26 26
18 18 19 21 23 25 26 28 28 28 22 17 15 14 19 20 15 12 12 13 13 11 13 14 16 18 18 17 20 17 17 18 19 20 22 21 22 22 24 24 24 23 22 22 21 22 22 22 23 23 23 23 23 23
23 23 24 25 25 26 26 24 19 15 14 13 15 17 15 12 9 10 12 13 13 12 14 18 20 17 13 13 18 18 18 18 16 17 16 16 14 15 17 19 20 20 21 21 22 21 20 20 20 19 19 18 18 19
32 34 34 33 31 28 24 21 20 19 18 17 14 13 8 8 9 10 11 13 13 13 20 19 14 11 8 11 17 15 14 15 15 14 13 11 11 11 12 14 15 15 15 14 15 15 14 13 14 15 16 17 17 17
33 33 33 33 31 30 27 23 23 21 19 16 11 10 7 8 6 6 6 9 13 16 20 16 12 10 10 11 10 10 11 12 13 12 11 8 8 8 7 7 7 8 9 8 8 9 9 9 9 9 10 11 12 13
26 27 27 26 24 22 21 20 18 16 14 11 10 8 7 4 3 5 8 14 14 16 16 13 12 10 10 9 7 8 10 8 7 8 8 8 7 6 6 6 6 6 7 7 8 8 7 7 7 6 6 6 7 8
19 20 18 18 16 15 13 13 13 13 11 10 9 6 5 6 7 12 14 15 15 15 15 13 11 10 8 7 7 4 4 3 5 7 7 7 7 7 6 7 7 7 6 6 6 5 5 5 5 5 5 6 7 8
12 11 13 13 13 12 9 9 9 8 7 6 7 9 8 10 10 12 13 14 15 14 13 11 9 7 7 7 7 6 5 5 4 5 5 5 6 6 6 6 6 6 5 5 5 5 5 5 6 6 6 7 8 9
10 12 13 11 11 11 10 9 9 9 11 11 9 9 11 10 9 10 11 10 11 11 10 8 7 6 6 6 6 6 7 6 5 5 5 4 4 5 5 5 5 5 5 5 5 5 5 6 6 7 8 9 10 11
12 12 12 13 10 11 11 12 12 12 13 12 13 12 11 10 9 7 7 8 7 8 9 7 5 5 6 7 5 5 5 6 6 5 4 3 4 4 4 4 4 4 4 4 5 6 6 6 8 9 11 12 14 16
13 12 11 9 8 9 9 10 10 11 11 11 11 14 14 12 12 11 9 7 6 6 4 4 4 4 5 5 6 7 6 6 7 6 5 4 4 4 4 5 5 5 5 6 6 7 8 9 10 12 14 16 18 20
12 11 9 7 8 9 8 8 9 9 10 9 10 11 11 12 12 10 10 8 6 4 3 2 2 2 3 4 4 5 5 5 5 6 6 5 5 5 5 5 6 6 7 7 8 9 11 13 14 16 18 20 22 24
13 12 10 9 9 9 9 8 8 8 7 8 8 7 7 8 9 9 10 8 6 6 3 2 2 2 2 2 3 3 3 4 5 5 5 6 6 6 6 7 7 8 9 10 12 13 15 17 19 20 22 23 25 27
11 8 7 6 6 6 5 5 5 5 4 4 4 4 5 5 5 5 4 6 5 6 5 3 3 3 2 3 3 3 4 5 6 6 7 7 8 8 9 9 11 12 13 14 15 17 18 20 22 23 25 27 28 30
5 4 4 3 4 3 2 3 3 3 4 4 4 4 5 6 6 6 6 6 7 7 7 7 7 7 6 6 7 7 8 8 8 9 10 10 11 11 12 13 14 15 16 17 19 20 22 23 24 26 27 29 30 31
3 3 2 3 3 2 3 3 4 4 4 5 6 7 8 9 9 10 10 10 11 12 12 12 12 11 11 11 11 11 11 11 12 11 12 13 14 14 15 15 16 17 19 20 21 22 23 25 26 27 28 29 30 30
2 4 2 3 3 3 4 4 5 6 7 7 8 9 11 11 12 13 13 14 14 14 14 14 13 12 12 12 12 12 12 12 12 12 13 14 15 16 16 17 18 19 20 21 22 23 24 25 25 25 26 26 26 27
1 2 3 3 3 3 3 5 6 8 9 10 11 13 14 14 14 15 14 15 14 14 14 13 12 10 9 9 9 9 10 10 11 12 13 14 14 15 16 18 19 20 21 21 22 22 22 22 22 22 22 22 23 23
2 3 2 4 4 6 6 8 9 10 11 13 14 15 15 16 16 16 15 14 13 12 10 10 9 8 8 8 9 9 10 10 11 11 12 13 14 15 16 17 18 19 19 19 19 19 18 18 18 18 19 19 20 21
2 3 3 5 6 7 9 10 11 12 14 15 15 16 16 16 16 13 12 11 11 10 10 10 10 10 10 10 10 11 12 12 13 13 13 14 15 15 16 16 16 16 15 14 13 13 14 15 15 16 17 18 19 20
3 5 4 7 8 9 10 11 11 12 14 14 14 13 13 13 12 11 10 10 10 10 10 10 10 10 10 11 11 11 11 12 12 13 13 13 14 14 13 12 11 10 10 10 11 12 13 14 15 16 17 18 20 21
4 5 6 7 7 8 8 9 11 12 14 14 14 13 12 11 10 9 8 8 7 7 6 7 7 7 8 9 9 10 10 10 10 10 10 10 10 10 9 8 8 8 9 10 11 12 13 14 15 16 18 19 20 21
6 6 6 7 7 8 10 12 13 14 14 15 14 13 11 9 8 7 7 6 6 5 6 6 7 7 8 8 8 8 8 9 9 9 9 8 7 6 6 7 8 9 10 11 11 12 14 15 16 18 19 20 21 22
4 5 6 7 8 10 11 13 13 14 14 13 12 11 10 9 7 6 6 6 6 5 6 7 7 7 7 8 8 8 8 8 7 6 5 5 6 6 7 8 9 10 10 11 12 14 15 16 17 19 20 21 22 23
Wind_Direction
341 334 337 338 343 345 354 176 180 182 183 183 183 183 184 184 183 189 190 192 194 198 200 203 203 207 208 206 202 203 201 209 204 209 214 216 221 219 223 226 217 219 221 225 230 234 238 224 220 225 241 252 257 256
2 5 358 8 24 52 106 138 156 165 170 173 175 177 178 180 181 184 186 191 193 193 194 201 203 208 212 205 204 204 205 203 206 209 214 218 218 220 219 223 217 221 223 225 227 237 240 228 236 238 249 257 255 261
19 20 28 67 65 83 106 124 139 151 159 164 168 171 171 173 179 183 183 185 190 194 200 203 209 206 207 204 207 206 207 208 210 211 213 217 220 219 223 227 232 229 234 233 234 236 240 240 243 248 256 255 259 262
40 47 55 79 91 101 112 123 134 142 150 158 163 164 165 168 174 179 180 181 181 184 193 198 203 209 208 205 207 208 207 209 208 209 211 216 219 223 226 231 233 233 235 240 246 248 253 249 252 255 256 254 258 262
55 57 65 76 92 108 112 123 130 138 142 149 156 160 163 167 167 170 177 185 185 189 196 195 199 211 209 210 213 207 207 209 206 209 215 219 223 229 232 237 238 236 238 239 245 250 251 254 253 257 252 254 255 258
63 68 75 87 94 101 109 116 122 128 134 140 145 154 160 163 166 170 173 181 187 190 187 202 211 205 206 211 211 209 205 206 207 213 218 223 224 225 233 237 240 242 243 245 249 252 255 258 256 259 259 255 254 257
74 79 84 89 99 104 112 119 124 129 135 135 140 145 154 159 163 169 175 177 181 190 200 206 205 205 207 204 207 206 205 205 207 210 215 218 220 225 235 238 240 245 247 246 250 254 255 256 257 254 255 256 257 256
82 85 90 96 100 107 115 118 126 128 138 137 140 140 141 147 156 166 166 172 181 187 197 203 202 203 195 195 198 198 202 206 211 213 217 220 223 228 236 239 244 248 251 253 255 255 256 259 258 257 257 256 256 257
94 93 95 100 107 111 113 119 122 127 130 136 141 145 150 160 163 162 168 173 182 194 201 201 201 196 188 191 182 190 196 201 208 214 218 222 224 228 237 244 248 252 255 258 254 254 254 258 259 258 258 257 256 256
94 105 111 108 112 115 118 120 124 127 132 133 136 141 148 155 152 156 168 181 190 199 204 206 205 200 193 189 187 183 186 190 203 211 215 227 232 235 243 252 253 256 261 261 256 254 256 259 261 260 259 259 258 257
92 102 117 123 123 123 124 127 128 130 135 139 143 146 146 155 169 179 185 191 192 205 208 200 195 185 189 198 198 202 193 195 202 206 212 225 231 239 252 254 257 260 259 259 257 257 259 262 263 262 262 262 259 256
84 100 111 121 125 127 127 128 132 136 138 142 140 146 155 165 175 195 200 200 206 213 193 185 179 182 189 198 200 192 196 197 202 201 211 223 231 251 255 253 258 260 259 257 255 256 261 265 263 262 262 261 259 256
90 100 103 107 112 118 121 121 120 121 124 129 135 144 173 190 201 199 198 201 200 187 178 176 183 193 200 192 169 182 187 197 196 203 211 223 246 255 259 254 255 256 256 255 252 250 252 257 261 261 259 259 257 255
95 102 105 106 108 108 107 106 110 112 112 113 113 117 119 139 141 155 180 180 180 181 180 178 172 170 161 154 162 163 170 180 196 201 206 231 254 256 254 253 243 244 244 240 238 244 242 251 256 262 259 254 252 248
97 102 106 106 108 107 102 100 104 98 104 103 96 104 92 111 128 184 173 170 164 169 173 175 170 166 165 162 153 157 170 171 185 195 215 242 249 244 244 247 243 242 238 236 235 241 245 241 246 247 256 247 235 235
104 102 102 104 107 107 104 104 102 96 93 86 85 77 55 96 97 134 143 150 157 166 166 164 167 174 169 181 182 191 187 195 209 218 232 235 242 247 248 249 245 241 237 234 235 227 227 230 237 233 247 257 255 256
104 108 113 104 96 89 91 116 107 91 83 76 83 75 86 101 104 139 146 152 158 162 163 168 171 185 192 201 205 222 223 226 229 230 240 249 245 243 240 239 237 231 228 224 220 225 231 233 237 247 260 266 268 271
105 119 114 106 98 84 82 91 96 81 80 81 94 89 91 94 104 124 144 158 168 170 174 178 193 197 201 200 206 225 241 216 228 242 251 249 244 237 227 216 219 222 221 225 225 226 233 245 255 265 269 271 275 278
124 120 115 112 89 90 88 83 87 91 83 84 78 81 89 92 92 109 134 150 157 171 183 195 201 219 221 218 241 241 241 223 226 230 238 243 230 214 203 207 211 214 221 229 235 245 256 267 272 274 277 280 283 285
132 126 116 105 97 95 90 88 88 86 84 85 85 77 77 80 79 83 92 107 126 158 167 192 200 216 224 235 244 246 251 234 230 226 226 227 220 209 214 219 225 229 235 246 256 263 269 277 284 286 288 289 290 292
130 127 118 97 96 90 91 92 89 89 90 81 79 76 73 67 63 66 67 73 82 97 127 144 180 231 248 255 252 245 245 236 227 219 216 218 227 229 233 241 246 251 257 264 269 277 283 285 288 291 293 294 295 296
124 122 109 97 96 90 85 78 87 88 82 81 68 65 58 54 50 52 57 56 55 46 38 18 344 309 307 305 284 260 237 218 220 223 228 234 240 247 254 259 262 268 274 278 280 284 287 291 292 294 295 296 297 299
121 113 102 88 90 82 80 62 66 48 51 42 33 30 24 21 12 5 11 12 13 4 359 357 351 337 323 307 293 285 265 246 243 245 247 250 253 258 264 270 275 276 279 284 286 288 290 293 295 296 297 298 299 300
109 105 83 70 57 76 57 38 23 19 11 2 357 354 348 344 339 339 333 326 323 323 318 314 299 294 293 295 291 286 276 266 260 259 260 260 263 268 273 276 280 283 285 286 289 291 293 296 297 299 300 301 302 303
115 49 48 52 23 30 10 355 347 342 344 340 331 329 325 321 318 315 310 305 308 308 306 302 298 294 288 285 282 279 276 269 265 265 268 268 267 269 274 279 284 287 288 289 292 294 296 298 299 301 302 304 305 307
99 5 343 334 332 330 326 322 326 330 323 322 323 316 314 314 312 311 305 303 302 301 302 299 293 288 288 285 278 276 275 272 268 270 274 277 278 278 280 282 284 289 293 294 295 297 299 300 302 304 306 308 310 311
314 341 348 337 329 332 331 336 330 327 322 320 316 314 313 312 310 307 299 299 294 293 294 294 290 285 280 278 278 277 277 277 276 275 276 280 283 286 287 287 289 292 294 296 298 300 301 303 305 307 309 312 314 316
303 321 325 331 339 333 320 321 321 320 318 316 312 314 311 310 306 303 296 293 289 286 284 283 281 277 276 276 278 279 281 282 282 282 284 288 291 292 292 292 294 295 296 299 301 303 305 308 311 314 316 318 320 321
305 302 313 333 328 329 328 323 319 318 316 315 312 312 309 308 307 296 289 284 280 278 276 274 273 272 272 275 280 284 287 287 286 288 289 290 293 297 298 299 299 300 301 303 307 311 314 316 319 320 322 323 324 324
297 307 308 322 323 324 324 324 323 324 324 323 319 318 318 311 305 297 287 283 279 277 274 271 271 272 274 277 281 286 289 291 293 292 292 294 297 299 301 303 305 307 310 312 315 317 320 321 323 325 327 327 328 328
291 304 315 321 321 328 329 329 329 330 328 330 327 322 317 308 300 298 292 287 280 272 266 266 270 278 284 287 287 287 289 294 297 299 300 300 302 304 305 307 310 313 316 318 320 322 324 325 326 327 328 329 329 330
309 316 311 318 316 315 319 320 323 324 323 323 322 320 315 307 301 290 281 277 274 270 273 276 279 285 289 290 292 294 295 295 297 299 302 304 306 308 310 313 316 318 319 321 323 324 326 327 327 328 329 329 330 330
321 337 334 327 322 317 319 319 323 324 324 324 324 320 316 310 303 292 277 272 273 273 275 282 289 288 287 291 293 295 296 298 298 300 302 305 309 310 311 314 317 318 320 321 323 325 326 327 328 329 329 329 329 329